Home   Weather   Mo i Rana   Past weeks

Flag for Norway Past Weather in Mo i Rana, Norway — Yesterday and Last 2 Weeks

Now
36 °F

Partly cloudy.


Feels Like: 36 °F
Forecast: 31 / 39 °F
Wind: 2 mph from Northwest

Location: Mo I Rana / Rossvoll

Current Time: Apr 30, 2017 at 10:43:59 pm

Latest Report: Apr 30, 2017 at 10:20 pm


Visibility: N/A

Pressure: 29.98 "Hg

Humidity: 65%

Dew Point: 25 °F

Location of Mo i RanaLocation

Past Weather in Mo i Rana — Graph

°F

Mo i Rana Temperature Yesterday

Maximum temperature yesterday: 41 °F (at 1:20 pm)
Minimum temperature yesterday: 37 °F (at 10:20 am)
Average temperature yesterday: 40 °F

High & Low Weather Summary for the Past Weeks

 TemperatureHumidityPressure
High45 °F (Apr 26, 11:50 am)100% (Apr 19, 8:20 pm)30.48 "Hg (Apr 19, 8:20 pm)
Low16 °F (Apr 18, 5:50 am)33% (Apr 18, 10:50 am)29.03 "Hg (Apr 21, 10:50 am)
Average36 °F59%29.89 "Hg
* Reported Apr 16 10:50 am — Apr 30 8:50 pm, Mo i Rana, Weather by CustomWeather, © 2017

Note: Actual official high and low records may vary slightly from our data, if they occured in-between our weather recording intervals... More about our weather records

Advertising

Mo i Rana Weather History for the Previous 24 Hours

Scroll right to see more
 ConditionsComfort  
Time TempWeatherWind HumidityBarometerVisibility
8:50 pm
Sun, Apr 30
37 °FBroken clouds.5 mph60%29.98 "HgN/A
8:20 pm37 °FScattered showers. Broken clouds.10 mph60%29.98 "HgN/A
7:50 pm39 °FBroken clouds.9 mph52%29.98 "HgN/A
7:20 pm39 °FBroken clouds.9 mph52%29.98 "HgN/A
6:50 pm39 °FScattered showers. Broken clouds.9 mph48%29.98 "HgN/A
5:50 pm41 °FBroken clouds.9 mph45%29.98 "HgN/A
5:20 pm43 °FScattered clouds.12 mph39%29.98 "HgN/A
4:50 pm41 °FScattered clouds.12 mph45%30.01 "HgN/A
4:20 pm41 °FScattered clouds.8 mph42%30.01 "HgN/A
3:50 pm43 °FBroken clouds.6 mph39%30.01 "HgN/A
3:20 pm45 °FBroken clouds.6 mph37%30.04 "HgN/A
2:50 pm45 °FBroken clouds.7 mph37%30.04 "HgN/A
1:50 pm45 °FBroken clouds.2 mph34%30.04 "HgN/A
1:20 pm45 °FScattered clouds.5 mph37%30.07 "HgN/A
12:50 pm43 °FBroken clouds.2 mph42%30.07 "HgN/A
12:20 pm41 °FBroken clouds.8 mph45%30.09 "HgN/A
11:50 am41 °FBroken clouds.6 mph42%30.09 "HgN/A
Weather by CustomWeather, © 2017

See weather overviewHow to use our weather pages